Ft Riley, KS

9:14 PM CDT on March 28, 2017 (GMT -0500)
Marshall Army Air Field

Weather History for KFRI - July, 2013

Change the Weather History Date:

Saturday, July 20, 2013

  Actual Average (KMHK) Record (KMHK)
Temperature  
Mean Temperature 82 °F -  
Max Temperature 93 °F 90 °F 105 °F (2011)
Min Temperature 70 °F 66 °F 64 °F (2004)
Cooling Degree Days 16    
Growing Degree Days 32 (Base 50)    
Moisture  
Dew Point 70 °F    
Average Humidity 80    
Maximum Humidity 100    
Minimum Humidity 42    
Precipitation  
Precipitation 0.86 in - - ()
Sea Level Pressure  
Sea Level Pressure 29.89 in    
Wind  
Wind Speed 7 mph (ENE)    
Max Wind Speed 31 mph    
Max Gust Speed 60 mph    
Visibility 8 miles    
Events Rain , Thunderstorm    
Averages and records for this station are not official NWS values.
T = Trace of Precipitation, MM = Missing Value Source: NWS Daily Summary

Daily Weather History Graph

Daily Weather History Graph

Search for Another Location

Airport or City:

Trip Planner

Search our weather history database for the weather conditions in past years. The results will help you decide how hot, cold, wet, or windy it might be!

Date:

Astronomy

Jul. 20, 2013 Rise Set
Actual Time 6:17 AM CDT 8:48 PM CDT
Civil Twilight 5:46 AM CDT 9:19 PM CDT
Nautical Twilight 5:08 AM CDT 9:57 PM CDT
Astronomical Twilight 4:25 AM CDT 10:40 PM CDT
Moon 6:53 PM CDT (7/20) 3:58 AM CDT (7/20)
Length of Visible Light 15h 32m
Length of Day
14h 31m
Waxing Gibbous, 94% of the Moon is Illuminated
Jul 20
Waxing Gibbous
Jul 22
Full
Jul 29
Last Quarter
Aug 6
New
Aug 14
First Quarter

Hourly Weather History & Observations

Time (CDT) Temp. Heat Index Dew Point Humidity Pressure Visibility Wind Dir Wind Speed Gust Speed Precip Events Conditions
12:58 AM 77.2 °F - 68.5 °F 75% 29.90 in 10.0 mi Calm Calm - N/A   Mostly Cloudy
1:58 AM 73.9 °F - 71.8 °F 93% 29.87 in 10.0 mi SW 4.6 mph - N/A   Overcast
2:58 AM 73.8 °F - 71.4 °F 92% 29.88 in 10.0 mi NNW 2.3 mph - N/A   Mostly Cloudy
3:58 AM 72.7 °F - 71.8 °F 97% 29.88 in 10.0 mi NW 1.2 mph - N/A   Mostly Cloudy
4:58 AM 74.3 °F - 71.1 °F 90% 29.88 in 10.0 mi NW 3.5 mph - N/A   Scattered Clouds
5:58 AM 73.4 °F - 71.2 °F 93% 29.86 in 10.0 mi Variable 1.2 mph - N/A   Partly Cloudy
6:00 AM 73.4 °F - 71.6 °F 94% 29.90 in 10.0 mi North 3.5 mph - N/A   Light Drizzle
6:10 AM 73.4 °F - 71.6 °F 94% 29.90 in 10.0 mi NNW 2.3 mph - N/A   Scattered Clouds
6:58 AM 75.2 °F - 69.8 °F 83% 29.86 in 10.0 mi SW 6.9 mph - 0.00 in   Scattered Clouds
7:04 AM 75.2 °F - 69.8 °F 83% 29.91 in 9.0 mi SW 10.4 mph - N/A Thunderstorm Thunderstorm
7:07 AM 75.2 °F - 66.2 °F 73% 29.89 in 4.0 mi SW 31.1 mph 50.6 mph N/A Rain , Thunderstorm Light Thunderstorms and Rain
7:12 AM 77.0 °F - 64.4 °F 65% 29.89 in 1.8 mi SSW 20.7 mph 50.6 mph N/A Rain , Thunderstorm Thunderstorms and Rain
7:15 AM 77.0 °F - 68.0 °F 74% 29.90 in 1.2 mi WSW 12.7 mph 50.6 mph N/A Rain , Thunderstorm Heavy Thunderstorms and Rain
7:19 AM 77.0 °F - 69.8 °F 78% 29.90 in 1.2 mi West 12.7 mph 36.8 mph N/A Rain Heavy Rain
7:24 AM 75.2 °F - 69.8 °F 83% 29.90 in 1.2 mi West 8.1 mph - N/A Rain Heavy Rain
7:29 AM 75.2 °F - 71.6 °F 89% 29.91 in 1.8 mi West 4.6 mph - N/A Rain Light Rain
7:34 AM 75.2 °F - 71.6 °F 89% 29.91 in 10.0 mi ENE 5.8 mph - N/A   Light Drizzle
7:35 AM 75.2 °F - 71.6 °F 89% 29.91 in 10.0 mi ENE 5.8 mph - N/A   Scattered Clouds
7:58 AM 74.8 °F - 73.6 °F 96% 29.89 in 10.0 mi NNE 5.8 mph - 0.20 in   Clear
8:58 AM 79.5 °F - 72.7 °F 79% 29.90 in 10.0 mi ENE 6.9 mph - N/A   Clear
9:58 AM 83.5 °F 87.2 °F 69.1 °F 62% 29.90 in 10.0 mi ESE 8.1 mph - N/A   Clear
10:58 AM 86.9 °F 90.6 °F 68.5 °F 54% 29.88 in 10.0 mi SE 3.5 mph - N/A   Clear
11:58 AM 90.0 °F 94.1 °F 68.5 °F 49% 29.88 in 10.0 mi SSE 6.9 mph - N/A   Clear
12:58 PM 93.0 °F 96.9 °F 67.8 °F 43% 29.85 in 10.0 mi SSE 9.2 mph - N/A   Clear
1:58 PM 92.1 °F 94.8 °F 66.0 °F 42% 29.83 in 10.0 mi East 4.6 mph - N/A   Partly Cloudy
2:02 PM 91.4 °F 94.0 °F 66.2 °F 43% 29.88 in 10.0 mi Calm Calm - N/A   Light Drizzle
2:06 PM 91.4 °F 95.4 °F 68.0 °F 46% 29.89 in 3.0 mi SSW 24.2 mph 36.8 mph N/A Rain , Thunderstorm Light Thunderstorms and Rain
2:09 PM 87.8 °F 91.4 °F 68.0 °F 52% 29.93 in 0.5 mi WSW 15.0 mph 59.8 mph N/A Rain , Thunderstorm Heavy Thunderstorms and Rain
2:13 PM 82.4 °F 84.6 °F 66.2 °F 58% 29.88 in 0.5 mi North 13.8 mph 59.8 mph N/A Rain , Thunderstorm Heavy Thunderstorms and Rain
2:17 PM 78.8 °F - 66.2 °F 65% 29.86 in 0.8 mi NNE 12.7 mph 59.8 mph N/A Rain , Thunderstorm Thunderstorms and Rain
2:22 PM 80.6 °F 83.9 °F 69.8 °F 70% 29.86 in 6.0 mi NNE 12.7 mph 29.9 mph N/A Rain , Thunderstorm Light Thunderstorms and Rain
2:25 PM 82.4 °F 87.2 °F 71.6 °F 70% 29.86 in 10.0 mi NNE 12.7 mph - N/A   Light Drizzle
2:33 PM 84.2 °F 90.9 °F 73.4 °F 70% 29.86 in 10.0 mi NNE 16.1 mph - N/A   Scattered Clouds
2:58 PM 82.8 °F 87.9 °F 72.1 °F 70% 29.83 in 10.0 mi NE 23.0 mph 28.8 mph 0.40 in Thunderstorm Partly Cloudy
3:32 PM 78.8 °F - 66.2 °F 65% 29.93 in 10.0 mi ESE 9.2 mph - N/A Thunderstorm Thunderstorm
3:33 PM 78.8 °F - 66.2 °F 65% 29.93 in 10.0 mi ESE 11.5 mph - N/A Rain , Thunderstorm Light Thunderstorms and Rain
3:49 PM 75.2 °F - 69.8 °F 83% 29.92 in 4.0 mi ENE 18.4 mph - N/A Rain , Thunderstorm Rain
3:51 PM 75.2 °F - 69.8 °F 83% 29.91 in 3.0 mi ENE 18.4 mph - N/A Rain , Thunderstorm Light Thunderstorms and Rain
3:58 PM 74.1 °F - 69.4 °F 85% 29.88 in 7.0 mi NE 15.0 mph - 0.03 in Rain , Thunderstorm Light Thunderstorms and Rain
4:13 PM 73.4 °F - 69.8 °F 88% 29.90 in 6.0 mi ENE 13.8 mph - N/A Rain , Thunderstorm Light Rain
4:30 PM 73.4 °F - 71.6 °F 94% 29.89 in 10.0 mi ENE 12.7 mph - N/A   Mostly Cloudy
4:55 PM 73.4 °F - 69.8 °F 88% 29.91 in 10.0 mi ENE 10.4 mph 19.6 mph N/A   Light Drizzle
4:58 PM 73.8 °F - 69.8 °F 87% 29.88 in 10.0 mi ENE 9.2 mph 19.6 mph 0.04 in   Light Drizzle
5:07 PM 73.4 °F - 69.8 °F 88% 29.93 in 10.0 mi Variable 5.8 mph - N/A   Scattered Clouds
5:27 PM 73.4 °F - 69.8 °F 88% 29.92 in 10.0 mi East 11.5 mph - N/A Thunderstorm Light Drizzle
5:53 PM 73.4 °F - 69.8 °F 88% 29.91 in 10.0 mi SE 9.2 mph 25.3 mph N/A Rain , Thunderstorm Light Thunderstorms and Rain
5:58 PM 72.7 °F - 70.5 °F 93% 29.88 in 10.0 mi Variable 5.8 mph - 0.02 in Rain , Thunderstorm Light Thunderstorms and Rain
6:08 PM 73.4 °F - 71.6 °F 94% 29.91 in 9.0 mi Variable 3.5 mph - N/A Rain Light Rain
6:11 PM 73.4 °F - 71.6 °F 94% 29.91 in 6.0 mi Variable 3.5 mph - N/A Rain , Thunderstorm Light Thunderstorms and Rain
6:29 PM 73.4 °F - 73.4 °F 100% 29.92 in 5.0 mi SW 9.2 mph - N/A Rain Rain
6:58 PM 72.5 °F - 72.5 °F 100% 29.84 in 10.0 mi SE 12.7 mph - 0.11 in Rain Light Rain
7:58 PM 71.8 °F - 68.7 °F 90% 29.83 in 10.0 mi ENE 6.9 mph - 0.06 in   Light Drizzle
8:13 PM 71.6 °F - 71.6 °F 100% 29.88 in 10.0 mi NNE 6.9 mph - N/A   Clear
8:58 PM 71.8 °F - 71.6 °F 99% 29.87 in 10.0 mi Variable 3.5 mph - 0.00 in   Partly Cloudy
9:58 PM 71.8 °F - 70.9 °F 97% 29.86 in 10.0 mi South 1.2 mph - N/A   Partly Cloudy
10:58 PM 70.2 °F - 70.2 °F 100% 29.89 in 10.0 mi North 5.8 mph - N/A   Mostly Cloudy
11:58 PM 70.7 °F - 70.7 °F 100% 29.88 in 10.0 mi NNE 4.6 mph - N/A   Overcast